Total_Precipitation_Accumulation
0.08 0.16 0.19 0.21 0.19 0.17 0.12 0.11 0.16 0.18 0.26 0.28 0.26 0.34 0.24 0.22 0.22 0.17 0.11 0.08 0.07 0.08 0.14 0.23 0.29 0.29 0.30 0.32 0.36 0.43 0.49 0.48 0.42 0.38 0.38 0.41 0.42 0.38 0.37 0.37 0.38 0.47 0.49 0.52
0.10 0.12 0.12 0.14 0.16 0.14 0.10 0.08 0.08 0.11 0.19 0.21 0.27 0.34 0.28 0.24 0.22 0.28 0.21 0.14 0.13 0.12 0.14 0.21 0.26 0.27 0.26 0.28 0.33 0.40 0.48 0.55 0.58 0.53 0.47 0.46 0.47 0.44 0.44 0.42 0.46 0.52 0.52 0.55
0.20 0.16 0.16 0.22 0.18 0.14 0.11 0.09 0.10 0.17 0.22 0.27 0.32 0.30 0.30 0.32 0.26 0.25 0.19 0.14 0.15 0.16 0.18 0.20 0.22 0.23 0.24 0.24 0.29 0.45 0.54 0.54 0.64 0.71 0.63 0.65 0.67 0.61 0.59 0.59 0.61 0.63 0.65 0.65
0.26 0.29 0.35 0.24 0.18 0.16 0.18 0.20 0.19 0.20 0.27 0.38 0.43 0.35 0.32 0.36 0.35 0.29 0.17 0.16 0.17 0.14 0.14 0.14 0.16 0.18 0.20 0.24 0.30 0.42 0.50 0.51 0.63 0.75 0.70 0.72 0.74 0.71 0.74 0.81 0.83 0.85 0.85 0.82
0.39 0.40 0.40 0.31 0.27 0.28 0.34 0.37 0.32 0.35 0.43 0.43 0.37 0.33 0.36 0.35 0.30 0.21 0.15 0.16 0.16 0.16 0.16 0.16 0.19 0.21 0.24 0.33 0.42 0.51 0.59 0.65 0.74 0.86 0.90 0.94 0.93 0.95 1.01 1.09 1.12 1.15 1.17 1.13
0.52 0.56 0.59 0.50 0.40 0.38 0.48 0.70 0.56 0.46 0.45 0.38 0.36 0.45 0.46 0.34 0.29 0.23 0.18 0.17 0.20 0.22 0.22 0.24 0.28 0.34 0.40 0.50 0.65 0.75 0.77 0.80 0.88 1.05 1.11 1.10 1.10 1.15 1.19 1.27 1.31 1.30 1.22 1.13
0.58 0.64 0.57 0.51 0.46 0.49 0.83 1.06 0.73 0.60 0.61 0.61 0.57 0.53 0.44 0.34 0.33 0.28 0.20 0.18 0.23 0.26 0.31 0.35 0.41 0.49 0.57 0.66 0.75 0.78 0.80 0.86 0.94 1.13 1.33 1.31 1.34 1.33 1.32 1.36 1.42 1.44 1.38 1.32
0.68 0.86 0.88 0.60 0.55 0.83 1.06 0.96 0.91 0.79 0.74 0.74 0.63 0.48 0.40 0.33 0.30 0.24 0.21 0.20 0.23 0.27 0.30 0.38 0.48 0.60 0.70 0.73 0.76 0.80 0.83 0.89 0.99 1.19 1.27 1.31 1.42 1.45 1.49 1.49 1.45 1.45 1.48 1.40
0.84 1.00 0.90 0.75 0.80 0.82 0.87 0.90 0.87 0.75 0.70 0.69 0.62 0.53 0.45 0.38 0.31 0.25 0.21 0.20 0.22 0.25 0.29 0.37 0.48 0.64 0.80 0.83 0.83 0.83 0.84 0.87 0.96 1.05 1.14 1.25 1.32 1.29 1.34 1.42 1.44 1.46 1.46 1.41
1.07 1.07 0.97 0.85 0.79 0.76 0.66 0.64 0.64 0.59 0.50 0.49 0.45 0.41 0.35 0.29 0.28 0.26 0.22 0.20 0.22 0.24 0.31 0.37 0.45 0.60 0.74 0.78 0.80 0.80 0.77 0.77 0.85 1.01 1.06 1.13 1.26 1.27 1.34 1.40 1.45 1.53 1.56 1.48
1.18 1.20 1.08 1.02 0.91 0.88 0.72 0.65 0.55 0.49 0.43 0.38 0.36 0.33 0.29 0.26 0.23 0.20 0.18 0.18 0.20 0.24 0.31 0.36 0.46 0.61 0.72 0.78 0.83 0.86 0.83 0.78 0.79 0.88 0.98 1.04 1.17 1.27 1.28 1.30 1.25 1.28 1.33 1.31
1.12 1.06 1.02 1.05 0.85 0.82 0.82 0.70 0.55 0.48 0.42 0.34 0.30 0.27 0.23 0.22 0.19 0.16 0.16 0.18 0.23 0.28 0.34 0.38 0.44 0.55 0.64 0.79 0.94 0.99 0.92 0.84 0.80 0.80 0.88 0.94 1.03 1.05 0.96 0.93 0.89 0.88 0.91 0.86
0.73 0.78 0.84 0.92 0.80 0.73 0.74 0.65 0.51 0.46 0.43 0.35 0.29 0.24 0.17 0.14 0.12 0.13 0.19 0.26 0.32 0.36 0.41 0.46 0.52 0.60 0.68 0.82 1.02 1.15 1.10 0.95 0.82 0.77 0.78 0.82 0.92 1.00 1.03 0.93 0.85 0.78 0.73 0.64
0.70 0.79 0.84 0.79 0.76 0.73 0.66 0.57 0.47 0.40 0.36 0.32 0.26 0.20 0.16 0.14 0.14 0.19 0.28 0.35 0.38 0.41 0.46 0.52 0.59 0.65 0.72 0.85 1.02 1.12 1.11 0.99 0.84 0.80 0.79 0.76 0.80 0.89 0.97 1.04 1.01 0.84 0.67 0.57
0.76 0.77 0.76 0.69 0.66 0.66 0.62 0.53 0.45 0.41 0.34 0.30 0.26 0.22 0.17 0.17 0.20 0.26 0.33 0.41 0.51 0.53 0.52 0.54 0.61 0.66 0.72 0.85 0.95 1.00 1.00 0.92 0.83 0.80 0.81 0.73 0.69 0.75 0.83 0.91 1.01 0.96 0.78 0.66
0.71 0.68 0.61 0.57 0.56 0.55 0.52 0.49 0.47 0.43 0.35 0.32 0.28 0.23 0.20 0.20 0.22 0.27 0.36 0.51 0.69 0.70 0.62 0.61 0.62 0.64 0.72 0.88 0.96 0.90 0.82 0.68 0.66 0.72 0.73 0.70 0.68 0.72 0.81 0.90 0.97 0.96 0.85 0.73
0.54 0.56 0.54 0.50 0.48 0.49 0.45 0.40 0.33 0.32 0.32 0.29 0.26 0.22 0.21 0.24 0.32 0.44 0.53 0.59 0.66 0.66 0.63 0.59 0.55 0.56 0.69 0.84 0.92 0.83 0.70 0.57 0.47 0.52 0.63 0.67 0.70 0.76 0.87 0.94 0.97 0.91 0.78 0.64
0.37 0.40 0.44 0.43 0.39 0.40 0.38 0.34 0.30 0.25 0.24 0.27 0.26 0.25 0.27 0.37 0.56 0.74 0.78 0.74 0.69 0.59 0.53 0.51 0.46 0.49 0.62 0.70 0.79 0.78 0.66 0.55 0.46 0.47 0.54 0.58 0.68 0.81 0.89 0.90 0.86 0.80 0.72 0.63
0.26 0.30 0.33 0.33 0.31 0.28 0.27 0.28 0.27 0.24 0.22 0.26 0.33 0.34 0.36 0.44 0.65 0.84 0.87 0.92 0.90 0.73 0.54 0.44 0.41 0.45 0.55 0.61 0.69 0.73 0.59 0.45 0.37 0.37 0.41 0.44 0.57 0.75 0.81 0.76 0.68 0.67 0.66 0.65
0.21 0.23 0.24 0.24 0.22 0.19 0.16 0.17 0.18 0.22 0.25 0.31 0.36 0.41 0.46 0.51 0.67 0.86 0.92 0.95 0.89 0.72 0.52 0.42 0.40 0.39 0.45 0.58 0.66 0.64 0.52 0.39 0.28 0.25 0.30 0.39 0.55 0.72 0.73 0.65 0.61 0.63 0.63 0.65
0.16 0.17 0.17 0.16 0.16 0.15 0.12 0.13 0.18 0.27 0.34 0.36 0.39 0.47 0.53 0.58 0.67 0.84 1.05 1.05 0.81 0.57 0.43 0.40 0.39 0.37 0.42 0.57 0.62 0.57 0.49 0.40 0.31 0.26 0.30 0.43 0.61 0.72 0.65 0.58 0.57 0.58 0.56 0.60
0.12 0.13 0.15 0.14 0.13 0.13 0.11 0.14 0.20 0.31 0.43 0.44 0.41 0.45 0.54 0.64 0.70 0.75 0.84 0.98 0.85 0.64 0.44 0.37 0.37 0.39 0.44 0.56 0.56 0.49 0.45 0.42 0.36 0.32 0.37 0.49 0.61 0.66 0.60 0.56 0.59 0.57 0.56 0.58
0.10 0.10 0.10 0.09 0.10 0.10 0.10 0.13 0.19 0.34 0.50 0.53 0.49 0.48 0.56 0.65 0.75 0.90 0.88 0.78 0.78 0.69 0.49 0.36 0.33 0.38 0.45 0.51 0.52 0.45 0.46 0.44 0.38 0.35 0.38 0.46 0.52 0.55 0.57 0.59 0.60 0.56 0.56 0.56
0.08 0.07 0.07 0.07 0.08 0.10 0.13 0.17 0.23 0.32 0.44 0.44 0.37 0.34 0.44 0.60 0.63 0.65 0.74 0.78 0.74 0.69 0.53 0.40 0.31 0.33 0.41 0.44 0.48 0.50 0.53 0.47 0.39 0.34 0.35 0.41 0.47 0.53 0.60 0.64 0.63 0.60 0.59 0.55
0.08 0.07 0.06 0.08 0.13 0.18 0.21 0.27 0.34 0.41 0.50 0.44 0.32 0.24 0.30 0.46 0.61 0.57 0.59 0.64 0.66 0.61 0.52 0.43 0.38 0.39 0.42 0.48 0.53 0.55 0.50 0.41 0.34 0.33 0.37 0.47 0.50 0.54 0.61 0.62 0.60 0.61 0.63 0.61
0.08 0.07 0.08 0.11 0.16 0.20 0.24 0.34 0.43 0.52 0.65 0.62 0.44 0.28 0.26 0.34 0.44 0.51 0.56 0.61 0.64 0.65 0.55 0.47 0.44 0.47 0.50 0.55 0.55 0.51 0.45 0.40 0.38 0.40 0.44 0.50 0.52 0.54 0.59 0.60 0.56 0.58 0.60 0.61
0.08 0.08 0.10 0.14 0.19 0.20 0.21 0.29 0.39 0.57 0.75 0.77 0.55 0.31 0.27 0.33 0.43 0.50 0.55 0.61 0.67 0.68 0.61 0.50 0.47 0.49 0.51 0.52 0.51 0.45 0.38 0.34 0.37 0.40 0.41 0.42 0.46 0.54 0.60 0.62 0.56 0.55 0.57 0.57